Regional Weather Roundup
Issued by NWS

Home | Current Version | Previous Version | Graphics & Text | Print | Product List | Glossary On
Versions: 1 2 3 4 5 6 7 8 9 10 11 12 13 14 15 16 17 18 19 20 21 22 23 24 25 26 27 28 29 30 31 32 33 34 35 36 37 38 39 40 41 42 43 44 45 46 47 48 49 50
899
ASUS43 KBIS 281510
RWRND

NORTH DAKOTA REGIONAL WEATHER ROUNDUP
NATIONAL WEATHER SERVICE BISMARCK ND
1000 AM CDT THU APR 28 2016

NOTE: "FAIR" INDICATES FEW OR NO CLOUDS BELOW 12,000 FEET WITH NO
SIGNIFICANT WEATHER AND/OR OBSTRUCTIONS TO VISIBILITY.


NDZ001>003-009>011-017-281600-
NORTHWEST NORTH DAKOTA

CITY           SKY/WX    TMP DP  RH WIND       PRES   REMARKS
WILLISTON      CLOUDY    46  23  40 E13       30.15R
MINOT          CLOUDY    46  20  35 NE10      30.15R
MINOT AFB      CLOUDY    44  21  40 NE12      30.15R
$$

NDZ018>021-031>035-040>046-281600-
SOUTHWEST NORTH DAKOTA

CITY           SKY/WX    TMP DP  RH WIND       PRES   REMARKS
BISMARCK       CLOUDY    43  34  70 N3        30.11R
DICKINSON      CLOUDY    36  30  79 E6        30.07R
GARRISON         N/A     44  26  49 E10       30.12R
HETTINGER ARPT FLURRIES  34  32  92 NE12      30.08S
$$

NDZ004>008-012>016-024-026-027-054-281600-
NORTHEAST NORTH DAKOTA

CITY           SKY/WX    TMP DP  RH WIND       PRES   REMARKS
GRAND FORKS    CLOUDY    49  22  34 E13       30.13R
GRND FRKS AFB  CLOUDY    48  20  33 E10       30.13R
DEVILS LAKE    PTSUNNY   43  23  45 NE15      30.13S
$$

NDZ022-023-025-028>030-036>039-047>053-281600-
SOUTHEAST NORTH DAKOTA

CITY           SKY/WX    TMP DP  RH WIND       PRES   REMARKS
FARGO          CLOUDY    47  20  34 NE6       30.07R
JAMESTOWN      CLOUDY    46  29  51 NE14      30.07R
$$





USA.gov is the U.S. government's official web portal to all federal, state and local government web resources and services.